Year,Month,Day,Hour,Minute,Value (Times are PST for temperature in C)
2013,08,31,00,00,13.70
2013,08,31,00,01,13.70
2013,08,31,00,02,13.70
2013,08,31,00,03,13.70
2013,08,31,00,04,13.70
2013,08,31,00,05,13.70
2013,08,31,00,06,13.70
2013,08,31,00,07,13.70
2013,08,31,00,08,13.70
2013,08,31,00,09,13.70
2013,08,31,00,10,13.70
2013,08,31,00,11,13.70
2013,08,31,00,12,13.70
2013,08,31,00,13,13.70
2013,08,31,00,14,13.70
2013,08,31,00,15,13.70
2013,08,31,00,16,13.70
2013,08,31,00,17,13.70
2013,08,31,00,18,13.70
2013,08,31,00,19,13.70
2013,08,31,00,20,13.70
2013,08,31,00,21,13.70
2013,08,31,00,22,13.70
2013,08,31,00,23,13.70
2013,08,31,00,24,13.70
2013,08,31,00,25,13.80
2013,08,31,00,26,13.80
2013,08,31,00,27,13.80
2013,08,31,00,28,13.80
2013,08,31,00,29,13.80
2013,08,31,00,30,13.80
2013,08,31,00,31,13.90
2013,08,31,00,32,13.90
2013,08,31,00,33,13.90
2013,08,31,00,34,13.90
2013,08,31,00,35,13.80
2013,08,31,00,36,13.80
2013,08,31,00,37,13.80
2013,08,31,00,38,13.80
2013,08,31,00,39,13.80
2013,08,31,00,40,13.80
2013,08,31,00,41,13.80
2013,08,31,00,42,13.80
2013,08,31,00,43,13.80
2013,08,31,00,44,13.80
2013,08,31,00,45,13.90
2013,08,31,00,46,13.90
2013,08,31,00,47,13.90
2013,08,31,00,48,13.90
2013,08,31,00,49,13.90
2013,08,31,00,50,13.80
2013,08,31,00,51,13.80
2013,08,31,00,52,13.80
2013,08,31,00,53,13.80
2013,08,31,00,54,13.80
2013,08,31,00,55,13.80
2013,08,31,00,56,13.80
2013,08,31,00,57,13.80
2013,08,31,00,58,13.80
2013,08,31,00,59,13.80
2013,08,31,01,00,13.80
2013,08,31,01,01,13.80
2013,08,31,01,02,13.80
2013,08,31,01,03,13.80
2013,08,31,01,04,13.80
2013,08,31,01,05,13.80
2013,08,31,01,06,13.80
2013,08,31,01,07,13.80
2013,08,31,01,08,13.80
2013,08,31,01,09,13.80
2013,08,31,01,10,13.80
2013,08,31,01,11,13.80
2013,08,31,01,12,13.70
2013,08,31,01,13,13.80
2013,08,31,01,14,13.70
2013,08,31,01,15,13.70
2013,08,31,01,16,13.70
2013,08,31,01,17,13.70
2013,08,31,01,18,13.70
2013,08,31,01,19,13.70
2013,08,31,01,20,13.70
2013,08,31,01,21,13.70
2013,08,31,01,22,13.60
2013,08,31,01,23,13.60
2013,08,31,01,24,13.60
2013,08,31,01,25,13.60
2013,08,31,01,26,13.60
2013,08,31,01,27,13.60
2013,08,31,01,28,13.60
2013,08,31,01,29,13.50
2013,08,31,01,30,13.50
2013,08,31,01,31,13.50
2013,08,31,01,32,13.40
2013,08,31,01,33,13.40
2013,08,31,01,34,13.40
2013,08,31,01,35,13.40
2013,08,31,01,36,13.40
2013,08,31,01,37,13.40
2013,08,31,01,38,13.40
2013,08,31,01,39,13.40
2013,08,31,01,40,13.40
2013,08,31,01,41,13.40
2013,08,31,01,42,13.30
2013,08,31,01,43,13.30
2013,08,31,01,44,13.30
2013,08,31,01,45,13.20
2013,08,31,01,46,13.20
2013,08,31,01,47,13.20
2013,08,31,01,48,13.20
2013,08,31,01,49,13.20
2013,08,31,01,50,13.20
2013,08,31,01,51,13.20
2013,08,31,01,52,13.20
2013,08,31,01,53,13.20
2013,08,31,01,54,13.20
2013,08,31,01,55,13.20
2013,08,31,01,56,13.20
2013,08,31,01,57,13.20
2013,08,31,01,58,13.20
2013,08,31,01,59,13.10
2013,08,31,02,00,13.20
2013,08,31,02,01,13.20
2013,08,31,02,02,13.20
2013,08,31,02,03,13.10
2013,08,31,02,04,13.10
2013,08,31,02,05,13.20
2013,08,31,02,06,13.20
2013,08,31,02,07,13.20
2013,08,31,02,08,13.20
2013,08,31,02,09,13.20
2013,08,31,02,10,13.20
2013,08,31,02,11,13.20
2013,08,31,02,12,13.20
2013,08,31,02,13,13.10
2013,08,31,02,14,13.10
2013,08,31,02,15,13.20
2013,08,31,02,16,13.20
2013,08,31,02,17,13.20
2013,08,31,02,18,13.20
2013,08,31,02,19,13.20
2013,08,31,02,20,13.20
2013,08,31,02,21,13.30
2013,08,31,02,22,13.30
2013,08,31,02,23,13.30
2013,08,31,02,24,13.30
2013,08,31,02,25,13.30
2013,08,31,02,26,13.40
2013,08,31,02,27,13.40
2013,08,31,02,28,13.40
2013,08,31,02,29,13.40
2013,08,31,02,30,13.40
2013,08,31,02,31,13.40
2013,08,31,02,32,13.40
2013,08,31,02,33,13.40
2013,08,31,02,34,13.40
2013,08,31,02,35,13.40
2013,08,31,02,36,13.40
2013,08,31,02,37,13.40
2013,08,31,02,38,13.50
2013,08,31,02,39,13.50
2013,08,31,02,40,13.40
2013,08,31,02,41,13.40
2013,08,31,02,42,13.40
2013,08,31,02,43,13.30
2013,08,31,02,44,13.30
2013,08,31,02,45,13.30
2013,08,31,02,46,13.30
2013,08,31,02,47,13.30
2013,08,31,02,48,13.40
2013,08,31,02,49,13.40
2013,08,31,02,50,13.40
2013,08,31,02,51,13.40
2013,08,31,02,52,13.30
2013,08,31,02,53,13.30
2013,08,31,02,54,13.30
2013,08,31,02,55,13.30
2013,08,31,02,56,13.30
2013,08,31,02,57,13.30
2013,08,31,02,58,13.30
2013,08,31,02,59,13.30
2013,08,31,03,00,13.30
2013,08,31,03,01,13.20
2013,08,31,03,02,13.20
2013,08,31,03,03,13.20
2013,08,31,03,04,13.20
2013,08,31,03,05,13.20
2013,08,31,03,06,13.20
2013,08,31,03,07,13.20
2013,08,31,03,08,13.20
2013,08,31,03,09,13.20
2013,08,31,03,10,13.20
2013,08,31,03,11,13.20
2013,08,31,03,12,13.20
2013,08,31,03,13,13.20
2013,08,31,03,14,13.20
2013,08,31,03,15,13.20
2013,08,31,03,16,13.10
2013,08,31,03,17,13.10
2013,08,31,03,18,13.10
2013,08,31,03,19,13.10
2013,08,31,03,20,13.00
2013,08,31,03,21,13.00
2013,08,31,03,22,13.00
2013,08,31,03,23,12.90
2013,08,31,03,24,12.90
2013,08,31,03,25,12.90
2013,08,31,03,26,12.90
2013,08,31,03,27,13.00
2013,08,31,03,28,13.00
2013,08,31,03,29,13.00
2013,08,31,03,30,12.90
2013,08,31,03,31,12.90
2013,08,31,03,32,12.90
2013,08,31,03,33,12.80
2013,08,31,03,34,12.80
2013,08,31,03,35,12.80
2013,08,31,03,36,12.80
2013,08,31,03,37,12.80
2013,08,31,03,38,12.80
2013,08,31,03,39,12.90
2013,08,31,03,40,12.80
2013,08,31,03,41,12.80
2013,08,31,03,42,12.80
2013,08,31,03,43,12.80
2013,08,31,03,44,12.80
2013,08,31,03,45,12.80
2013,08,31,03,46,12.80
2013,08,31,03,47,12.80
2013,08,31,03,48,12.80
2013,08,31,03,49,12.70
2013,08,31,03,50,12.70
2013,08,31,03,51,12.70
2013,08,31,03,52,12.70
2013,08,31,03,53,12.70
2013,08,31,03,54,12.80
2013,08,31,03,55,12.80
2013,08,31,03,56,12.80
2013,08,31,03,57,12.80
2013,08,31,03,58,12.80
2013,08,31,03,59,12.80
2013,08,31,04,00,12.80
2013,08,31,04,01,12.80
2013,08,31,04,02,12.80
2013,08,31,04,03,12.80
2013,08,31,04,04,12.80
2013,08,31,04,05,12.80
2013,08,31,04,06,12.80
2013,08,31,04,07,12.80
2013,08,31,04,08,12.80
2013,08,31,04,09,12.90
2013,08,31,04,10,12.90
2013,08,31,04,11,12.90
2013,08,31,04,12,12.90
2013,08,31,04,13,12.90
2013,08,31,04,14,12.90
2013,08,31,04,15,13.00
2013,08,31,04,16,13.00
2013,08,31,04,17,13.00
2013,08,31,04,18,13.00
2013,08,31,04,19,13.00
2013,08,31,04,20,12.90
2013,08,31,04,21,12.90
2013,08,31,04,22,12.90
2013,08,31,04,23,12.90
2013,08,31,04,24,12.90
2013,08,31,04,25,12.80
2013,08,31,04,26,12.80
2013,08,31,04,27,12.90
2013,08,31,04,28,12.90
2013,08,31,04,29,12.90
2013,08,31,04,30,12.90
2013,08,31,04,31,12.90
2013,08,31,04,32,13.00
2013,08,31,04,33,13.00
2013,08,31,04,34,13.10
2013,08,31,04,35,13.10
2013,08,31,04,36,13.10
2013,08,31,04,37,13.10
2013,08,31,04,38,13.10
2013,08,31,04,39,13.10
2013,08,31,04,40,13.10
2013,08,31,04,41,13.10
2013,08,31,04,42,13.10
2013,08,31,04,43,13.10
2013,08,31,04,44,13.00
2013,08,31,04,45,13.00
2013,08,31,04,46,13.00
2013,08,31,04,47,12.90
2013,08,31,04,48,12.90
2013,08,31,04,49,13.00
2013,08,31,04,50,13.00
2013,08,31,04,51,13.00
2013,08,31,04,52,13.10
2013,08,31,04,53,13.10
2013,08,31,04,54,13.10
2013,08,31,04,55,13.10
2013,08,31,04,56,13.10
2013,08,31,04,57,13.10
2013,08,31,04,58,13.10
2013,08,31,04,59,13.10
2013,08,31,05,00,13.00
2013,08,31,05,01,13.00
2013,08,31,05,02,12.90
2013,08,31,05,03,12.90
2013,08,31,05,04,12.90
2013,08,31,05,05,12.90
2013,08,31,05,06,12.90
2013,08,31,05,07,12.90
2013,08,31,05,08,12.90
2013,08,31,05,09,12.90
2013,08,31,05,10,12.90
2013,08,31,05,11,12.90
2013,08,31,05,12,12.90
2013,08,31,05,13,12.90
2013,08,31,05,14,12.90
2013,08,31,05,15,12.90
2013,08,31,05,16,13.00
2013,08,31,05,17,12.90
2013,08,31,05,18,12.90
2013,08,31,05,19,12.90
2013,08,31,05,20,12.90
2013,08,31,05,21,12.90
2013,08,31,05,22,12.90
2013,08,31,05,23,12.90
2013,08,31,05,24,12.80
2013,08,31,05,25,12.80
2013,08,31,05,26,12.80
2013,08,31,05,27,12.90
2013,08,31,05,28,12.90
2013,08,31,05,29,12.90
2013,08,31,05,30,12.90
2013,08,31,05,31,12.90
2013,08,31,05,32,12.80
2013,08,31,05,33,12.80
2013,08,31,05,34,12.80
2013,08,31,05,35,12.80
2013,08,31,05,36,12.80
2013,08,31,05,37,12.80
2013,08,31,05,38,12.80
2013,08,31,05,39,12.80
2013,08,31,05,40,12.80
2013,08,31,05,41,12.80
2013,08,31,05,42,12.80
2013,08,31,05,43,12.90
2013,08,31,05,44,12.90
2013,08,31,05,45,12.90
2013,08,31,05,46,13.00
2013,08,31,05,47,13.00
2013,08,31,05,48,13.00
2013,08,31,05,49,13.10
2013,08,31,05,50,13.10
2013,08,31,05,51,13.20
2013,08,31,05,52,13.20
2013,08,31,05,53,13.20
2013,08,31,05,54,13.30
2013,08,31,05,55,13.30
2013,08,31,05,56,13.30
2013,08,31,05,57,13.40
2013,08,31,05,58,13.40
2013,08,31,05,59,13.40
2013,08,31,06,00,13.50
2013,08,31,06,01,13.50
2013,08,31,06,02,13.50
2013,08,31,06,03,13.50
2013,08,31,06,04,13.50
2013,08,31,06,05,13.50
2013,08,31,06,06,13.50
2013,08,31,06,07,13.50
2013,08,31,06,08,13.50
2013,08,31,06,09,13.40
2013,08,31,06,10,13.40
2013,08,31,06,11,13.40
2013,08,31,06,12,13.40
2013,08,31,06,13,13.40
2013,08,31,06,14,13.40
2013,08,31,06,15,13.40
2013,08,31,06,16,13.40
2013,08,31,06,17,13.40
2013,08,31,06,18,13.40
2013,08,31,06,19,13.40
2013,08,31,06,20,13.40
2013,08,31,06,21,13.40
2013,08,31,06,22,13.40
2013,08,31,06,23,13.40
2013,08,31,06,24,13.40
2013,08,31,06,25,13.40
2013,08,31,06,26,13.40
2013,08,31,06,27,13.40
2013,08,31,06,28,13.40
2013,08,31,06,29,13.40
2013,08,31,06,30,13.50
2013,08,31,06,31,13.50
2013,08,31,06,32,13.50
2013,08,31,06,33,13.50
2013,08,31,06,34,13.50
2013,08,31,06,35,13.50
2013,08,31,06,36,13.50
2013,08,31,06,37,13.60
2013,08,31,06,38,13.60
2013,08,31,06,39,13.60
2013,08,31,06,40,13.60
2013,08,31,06,41,13.60
2013,08,31,06,42,13.70
2013,08,31,06,43,13.70
2013,08,31,06,44,13.70
2013,08,31,06,45,13.70
2013,08,31,06,46,13.70
2013,08,31,06,47,13.70
2013,08,31,06,48,13.70
2013,08,31,06,49,13.70
2013,08,31,06,50,13.70
2013,08,31,06,51,13.70
2013,08,31,06,52,13.70
2013,08,31,06,53,13.70
2013,08,31,06,54,13.70
2013,08,31,06,55,13.70
2013,08,31,06,56,13.70
2013,08,31,06,57,13.70
2013,08,31,06,58,13.70
2013,08,31,06,59,13.70
2013,08,31,07,00,13.70
2013,08,31,07,01,13.80
2013,08,31,07,02,13.80
2013,08,31,07,03,13.80
2013,08,31,07,04,13.80
2013,08,31,07,05,13.80
2013,08,31,07,06,13.80
2013,08,31,07,07,13.80
2013,08,31,07,08,13.80
2013,08,31,07,09,13.80
2013,08,31,07,10,13.80
2013,08,31,07,11,13.80
2013,08,31,07,12,13.80
2013,08,31,07,13,13.80
2013,08,31,07,14,13.80
2013,08,31,07,15,13.80
2013,08,31,07,16,13.80
2013,08,31,07,17,13.80
2013,08,31,07,18,13.80
2013,08,31,07,19,13.80
2013,08,31,07,20,13.80
2013,08,31,07,21,13.80
2013,08,31,07,22,13.80
2013,08,31,07,23,13.80
2013,08,31,07,24,13.80
2013,08,31,07,25,13.80
2013,08,31,07,26,13.80
2013,08,31,07,27,13.80
2013,08,31,07,28,13.80
2013,08,31,07,29,13.80
2013,08,31,07,30,13.80
2013,08,31,07,31,13.80
2013,08,31,07,32,13.80
2013,08,31,07,33,13.80
2013,08,31,07,34,13.90
2013,08,31,07,35,13.90
2013,08,31,07,36,13.90
2013,08,31,07,37,14.00
2013,08,31,07,38,14.00
2013,08,31,07,39,14.10
2013,08,31,07,40,14.20
2013,08,31,07,41,14.20
2013,08,31,07,42,14.20
2013,08,31,07,43,14.30
2013,08,31,07,44,14.30
2013,08,31,07,45,14.40
2013,08,31,07,46,14.40
2013,08,31,07,47,14.30
2013,08,31,07,48,14.30
2013,08,31,07,49,14.30
2013,08,31,07,50,14.30
2013,08,31,07,51,14.30
2013,08,31,07,52,14.20
2013,08,31,07,53,14.30
2013,08,31,07,54,14.30
2013,08,31,07,55,14.30
2013,08,31,07,56,14.30
2013,08,31,07,57,14.30
2013,08,31,07,58,14.20
2013,08,31,07,59,14.20
2013,08,31,08,00,14.20
2013,08,31,08,01,14.20
2013,08,31,08,02,14.20
2013,08,31,08,03,14.20
2013,08,31,08,04,14.10
2013,08,31,08,05,14.10
2013,08,31,08,06,14.10
2013,08,31,08,07,14.00
2013,08,31,08,08,14.00
2013,08,31,08,09,14.00
2013,08,31,08,10,14.00
2013,08,31,08,11,14.00
2013,08,31,08,12,14.10
2013,08,31,08,13,14.10
2013,08,31,08,14,14.10
2013,08,31,08,15,14.10
2013,08,31,08,16,14.10
2013,08,31,08,17,14.10
2013,08,31,08,18,14.10
2013,08,31,08,19,14.10
2013,08,31,08,20,14.10
2013,08,31,08,21,14.10
2013,08,31,08,22,14.10
2013,08,31,08,23,14.10
2013,08,31,08,24,14.10
2013,08,31,08,25,14.10
2013,08,31,08,26,14.10
2013,08,31,08,27,14.10
2013,08,31,08,28,14.10
2013,08,31,08,29,14.20
2013,08,31,08,30,14.20
2013,08,31,08,31,14.20
2013,08,31,08,32,14.20
2013,08,31,08,33,14.20
2013,08,31,08,34,14.20
2013,08,31,08,35,14.20
2013,08,31,08,36,14.30
2013,08,31,08,37,14.30
2013,08,31,08,38,14.30
2013,08,31,08,39,14.30
2013,08,31,08,40,14.40
2013,08,31,08,41,14.30
2013,08,31,08,42,14.30
2013,08,31,08,43,14.30
2013,08,31,08,44,14.30
2013,08,31,08,45,14.30
2013,08,31,08,46,14.30
2013,08,31,08,47,14.30
2013,08,31,08,48,14.30
2013,08,31,08,49,14.30
2013,08,31,08,50,14.30
2013,08,31,08,51,14.30
2013,08,31,08,52,14.30
2013,08,31,08,53,14.30
2013,08,31,08,54,14.30
2013,08,31,08,55,14.30
2013,08,31,08,56,14.40
2013,08,31,08,57,14.40
2013,08,31,08,58,14.40
2013,08,31,08,59,14.40
2013,08,31,09,00,14.40
2013,08,31,09,01,14.40
2013,08,31,09,02,14.40
2013,08,31,09,03,14.40
2013,08,31,09,04,14.40
2013,08,31,09,05,14.40
2013,08,31,09,06,14.50
2013,08,31,09,07,14.50
2013,08,31,09,08,14.50
2013,08,31,09,09,14.50
2013,08,31,09,10,14.60
2013,08,31,09,11,14.60
2013,08,31,09,12,14.70
2013,08,31,09,13,14.60
2013,08,31,09,14,14.60
2013,08,31,09,15,14.70
2013,08,31,09,16,14.60
2013,08,31,09,17,14.70
2013,08,31,09,18,14.70
2013,08,31,09,19,14.70
2013,08,31,09,20,14.70
2013,08,31,09,21,14.80
2013,08,31,09,22,14.80
2013,08,31,09,23,14.90
2013,08,31,09,24,15.00
2013,08,31,09,25,15.00
2013,08,31,09,26,15.00
2013,08,31,09,27,15.00
2013,08,31,09,28,15.00
2013,08,31,09,29,14.90
2013,08,31,09,30,14.90
2013,08,31,09,31,14.90
2013,08,31,09,32,14.90
2013,08,31,09,33,15.00
2013,08,31,09,34,15.00
2013,08,31,09,35,15.00
2013,08,31,09,36,15.00
2013,08,31,09,37,15.00
2013,08,31,09,38,15.00
2013,08,31,09,39,15.00
2013,08,31,09,40,15.00
2013,08,31,09,41,15.00
2013,08,31,09,42,15.00
2013,08,31,09,43,15.00
2013,08,31,09,44,15.00
2013,08,31,09,45,15.00
2013,08,31,09,46,15.00
2013,08,31,09,47,15.00
2013,08,31,09,48,15.00
2013,08,31,09,49,15.00
2013,08,31,09,50,15.00
2013,08,31,09,51,15.00
2013,08,31,09,52,15.00
2013,08,31,09,53,15.00
2013,08,31,09,54,15.00
2013,08,31,09,55,15.00
2013,08,31,09,56,15.00
2013,08,31,09,57,15.00
2013,08,31,09,58,15.00
2013,08,31,09,59,15.00
2013,08,31,10,00,15.00
2013,08,31,10,01,15.00
2013,08,31,10,02,15.00
2013,08,31,10,03,15.00
2013,08,31,10,04,15.00
2013,08,31,10,05,15.00
2013,08,31,10,06,15.00
2013,08,31,10,07,15.00
2013,08,31,10,08,15.00
2013,08,31,10,09,15.10
2013,08,31,10,10,15.20
2013,08,31,10,11,15.30
2013,08,31,10,12,15.30
2013,08,31,10,13,15.20
2013,08,31,10,14,15.20
2013,08,31,10,15,15.30
2013,08,31,10,16,15.30
2013,08,31,10,17,15.20
2013,08,31,10,18,15.20
2013,08,31,10,19,15.20
2013,08,31,10,20,15.20
2013,08,31,10,21,15.20
2013,08,31,10,22,15.20
2013,08,31,10,23,15.20
2013,08,31,10,24,15.30
2013,08,31,10,25,15.30
2013,08,31,10,26,15.30
2013,08,31,10,27,15.40
2013,08,31,10,28,15.40
2013,08,31,10,29,15.50
2013,08,31,10,30,15.60
2013,08,31,10,31,15.60
2013,08,31,10,32,15.70
2013,08,31,10,33,15.70
2013,08,31,10,34,15.70
2013,08,31,10,35,15.70
2013,08,31,10,36,15.80
2013,08,31,10,37,15.80
2013,08,31,10,38,15.90
2013,08,31,10,39,15.90
2013,08,31,10,40,15.80
2013,08,31,10,41,15.70
2013,08,31,10,42,15.70
2013,08,31,10,43,15.70
2013,08,31,10,44,15.70
2013,08,31,10,45,15.70
2013,08,31,10,46,15.70
2013,08,31,10,47,15.60
2013,08,31,10,48,15.60
2013,08,31,10,49,15.50
2013,08,31,10,50,15.50
2013,08,31,10,51,15.60
2013,08,31,10,52,15.60
2013,08,31,10,53,15.60
2013,08,31,10,54,15.60
2013,08,31,10,55,15.60
2013,08,31,10,56,15.60
2013,08,31,10,57,15.60
2013,08,31,10,58,15.70
2013,08,31,10,59,15.70
2013,08,31,11,00,15.70
2013,08,31,11,01,15.70
2013,08,31,11,02,15.60
2013,08,31,11,03,15.60
2013,08,31,11,04,15.60
2013,08,31,11,05,15.60
2013,08,31,11,06,15.60
2013,08,31,11,07,15.60
2013,08,31,11,08,15.60
2013,08,31,11,09,15.60
2013,08,31,11,10,15.60
2013,08,31,11,11,15.60
2013,08,31,11,12,15.70
2013,08,31,11,13,15.80
2013,08,31,11,14,15.80
2013,08,31,11,15,15.80
2013,08,31,11,16,15.70
2013,08,31,11,17,15.80
2013,08,31,11,18,15.80
2013,08,31,11,19,15.80
2013,08,31,11,20,15.80
2013,08,31,11,21,15.80
2013,08,31,11,22,15.90
2013,08,31,11,23,15.90
2013,08,31,11,24,16.00
2013,08,31,11,25,16.10
2013,08,31,11,26,16.10
2013,08,31,11,27,16.20
2013,08,31,11,28,16.20
2013,08,31,11,29,16.20
2013,08,31,11,30,16.20
2013,08,31,11,31,16.30
2013,08,31,11,32,16.30
2013,08,31,11,33,16.40
2013,08,31,11,34,16.50
2013,08,31,11,35,16.50
2013,08,31,11,36,16.60
2013,08,31,11,37,16.70
2013,08,31,11,38,16.80
2013,08,31,11,39,16.90
2013,08,31,11,40,16.90
2013,08,31,11,41,16.80
2013,08,31,11,42,16.80
2013,08,31,11,43,16.80
2013,08,31,11,44,16.80
2013,08,31,11,45,16.80
2013,08,31,11,46,16.80
2013,08,31,11,47,16.90
2013,08,31,11,48,16.90
2013,08,31,11,49,17.00
2013,08,31,11,50,17.00
2013,08,31,11,51,17.10
2013,08,31,11,52,17.10
2013,08,31,11,53,17.00
2013,08,31,11,54,17.00
2013,08,31,11,55,17.00
2013,08,31,11,56,17.10
2013,08,31,11,57,17.10
2013,08,31,11,58,17.10
2013,08,31,11,59,17.20
2013,08,31,12,00,17.30
2013,08,31,12,01,17.40
2013,08,31,12,02,17.50
2013,08,31,12,03,17.50
2013,08,31,12,04,17.60
2013,08,31,12,05,17.60
2013,08,31,12,06,17.60
2013,08,31,12,07,17.60
2013,08,31,12,08,17.60
2013,08,31,12,09,17.70
2013,08,31,12,10,17.70
2013,08,31,12,11,17.80
2013,08,31,12,12,17.80
2013,08,31,12,13,17.80
2013,08,31,12,14,17.90
2013,08,31,12,15,18.00
2013,08,31,12,16,18.00
2013,08,31,12,17,18.10
2013,08,31,12,18,18.10
2013,08,31,12,19,18.10
2013,08,31,12,20,18.10
2013,08,31,12,21,18.10
2013,08,31,12,22,18.20
2013,08,31,12,23,18.30
2013,08,31,12,24,18.30
2013,08,31,12,25,18.30
2013,08,31,12,26,18.40
2013,08,31,12,27,18.30
2013,08,31,12,28,18.30
2013,08,31,12,29,18.20
2013,08,31,12,30,18.20
2013,08,31,12,31,18.20
2013,08,31,12,32,18.30
2013,08,31,12,33,18.30
2013,08,31,12,34,18.40
2013,08,31,12,35,18.40
2013,08,31,12,36,18.40
2013,08,31,12,37,18.30
2013,08,31,12,38,18.30
2013,08,31,12,39,18.30
2013,08,31,12,40,18.30
2013,08,31,12,41,18.30
2013,08,31,12,42,18.40
2013,08,31,12,43,18.40
2013,08,31,12,44,18.50
2013,08,31,12,45,18.70
2013,08,31,12,46,18.80
2013,08,31,12,47,18.80
2013,08,31,12,48,18.90
2013,08,31,12,49,18.90
2013,08,31,12,50,18.90
2013,08,31,12,51,18.90
2013,08,31,12,52,18.90
2013,08,31,12,53,18.90
2013,08,31,12,54,18.80
2013,08,31,12,55,18.80
2013,08,31,12,56,18.80
2013,08,31,12,57,18.80
2013,08,31,12,58,18.80
2013,08,31,12,59,18.80
2013,08,31,13,00,18.80
2013,08,31,13,01,18.80
2013,08,31,13,02,18.80
2013,08,31,13,03,18.90
2013,08,31,13,04,19.00
2013,08,31,13,05,19.00
2013,08,31,13,06,19.10
2013,08,31,13,07,19.10
2013,08,31,13,08,19.10
2013,08,31,13,09,19.00
2013,08,31,13,10,19.00
2013,08,31,13,11,18.90
2013,08,31,13,12,19.00
2013,08,31,13,13,19.00
2013,08,31,13,14,19.00
2013,08,31,13,15,19.00
2013,08,31,13,16,19.00
2013,08,31,13,17,19.00
2013,08,31,13,18,19.00
2013,08,31,13,19,19.10
2013,08,31,13,20,19.10
2013,08,31,13,21,19.10
2013,08,31,13,22,19.00
2013,08,31,13,23,19.00
2013,08,31,13,24,19.00
2013,08,31,13,25,19.00
2013,08,31,13,26,19.10
2013,08,31,13,27,19.10
2013,08,31,13,28,19.10
2013,08,31,13,29,19.20
2013,08,31,13,30,19.30
2013,08,31,13,31,19.40
2013,08,31,13,32,19.50
2013,08,31,13,33,19.50
2013,08,31,13,34,19.60
2013,08,31,13,35,19.60
2013,08,31,13,36,19.70
2013,08,31,13,37,19.70
2013,08,31,13,38,19.70
2013,08,31,13,39,19.70
2013,08,31,13,40,19.70
2013,08,31,13,41,19.70
2013,08,31,13,42,19.70
2013,08,31,13,43,19.70
2013,08,31,13,44,19.70
2013,08,31,13,45,19.70
2013,08,31,13,46,19.70
2013,08,31,13,47,19.60
2013,08,31,13,48,19.60
2013,08,31,13,49,19.60
2013,08,31,13,50,19.60
2013,08,31,13,51,19.60
2013,08,31,13,52,19.50
2013,08,31,13,53,19.50
2013,08,31,13,54,19.50
2013,08,31,13,55,19.50
2013,08,31,13,56,19.50
2013,08,31,13,57,19.50
2013,08,31,13,58,19.50
2013,08,31,13,59,19.50
2013,08,31,14,00,19.60
2013,08,31,14,01,19.70
2013,08,31,14,02,19.70
2013,08,31,14,03,19.70
2013,08,31,14,04,19.70
2013,08,31,14,05,19.70
2013,08,31,14,06,19.70
2013,08,31,14,07,19.80
2013,08,31,14,08,19.80
2013,08,31,14,09,19.80
2013,08,31,14,10,19.80
2013,08,31,14,11,19.70
2013,08,31,14,12,19.70
2013,08,31,14,13,19.70
2013,08,31,14,14,19.70
2013,08,31,14,15,19.60
2013,08,31,14,16,19.60
2013,08,31,14,17,19.60
2013,08,31,14,18,19.60
2013,08,31,14,19,19.60
2013,08,31,14,20,19.60
2013,08,31,14,21,19.60
2013,08,31,14,22,19.60
2013,08,31,14,23,19.70
2013,08,31,14,24,19.70
2013,08,31,14,25,19.60
2013,08,31,14,26,19.70
2013,08,31,14,27,19.70
2013,08,31,14,28,19.70
2013,08,31,14,29,19.80
2013,08,31,14,30,19.90
2013,08,31,14,31,20.00
2013,08,31,14,32,20.10
2013,08,31,14,33,20.20
2013,08,31,14,34,20.20
2013,08,31,14,35,20.20
2013,08,31,14,36,20.30
2013,08,31,14,37,20.30
2013,08,31,14,38,20.40
2013,08,31,14,39,20.40
2013,08,31,14,40,20.40
2013,08,31,14,41,20.40
2013,08,31,14,42,20.40
2013,08,31,14,43,20.40
2013,08,31,14,44,20.40
2013,08,31,14,45,20.40
2013,08,31,14,46,20.40
2013,08,31,14,47,20.40
2013,08,31,14,48,20.40
2013,08,31,14,49,20.40
2013,08,31,14,50,20.40
2013,08,31,14,51,20.40
2013,08,31,14,52,20.40
2013,08,31,14,53,20.30
2013,08,31,14,54,20.40
2013,08,31,14,55,20.30
2013,08,31,14,56,20.30
2013,08,31,14,57,20.30
2013,08,31,14,58,20.40
2013,08,31,14,59,20.40
2013,08,31,15,00,20.50
2013,08,31,15,01,20.60
2013,08,31,15,02,20.70
2013,08,31,15,03,20.80
2013,08,31,15,04,20.90
2013,08,31,15,05,20.90
2013,08,31,15,06,20.90
2013,08,31,15,07,20.90
2013,08,31,15,08,20.90
2013,08,31,15,09,20.90
2013,08,31,15,10,20.90
2013,08,31,15,11,20.90
2013,08,31,15,12,20.80
2013,08,31,15,13,20.80
2013,08,31,15,14,20.70
2013,08,31,15,15,20.60
2013,08,31,15,16,20.60
2013,08,31,15,17,20.60
2013,08,31,15,18,20.60
2013,08,31,15,19,20.70
2013,08,31,15,20,20.60
2013,08,31,15,21,20.60
2013,08,31,15,22,20.70
2013,08,31,15,23,20.70
2013,08,31,15,24,20.70
2013,08,31,15,25,20.70
2013,08,31,15,26,20.80
2013,08,31,15,27,20.80
2013,08,31,15,28,20.80
2013,08,31,15,29,20.80
2013,08,31,15,30,20.80
2013,08,31,15,31,20.80
2013,08,31,15,32,20.80
2013,08,31,15,33,20.90
2013,08,31,15,34,20.90
2013,08,31,15,35,21.00
2013,08,31,15,36,21.10
2013,08,31,15,37,21.20
2013,08,31,15,38,21.20
2013,08,31,15,39,21.20
2013,08,31,15,40,21.20
2013,08,31,15,41,21.20
2013,08,31,15,42,21.10
2013,08,31,15,43,21.10
2013,08,31,15,44,21.10
2013,08,31,15,45,21.10
2013,08,31,15,46,21.10
2013,08,31,15,47,21.10
2013,08,31,15,48,21.10
2013,08,31,15,49,21.10
2013,08,31,15,50,21.10
2013,08,31,15,51,21.10
2013,08,31,15,52,21.10
2013,08,31,15,53,21.20
2013,08,31,15,54,21.20
2013,08,31,15,55,21.20
2013,08,31,15,56,21.30
2013,08,31,15,57,21.30
2013,08,31,15,58,21.30
2013,08,31,15,59,21.30
2013,08,31,16,00,21.30
2013,08,31,16,01,21.30
2013,08,31,16,02,21.30
2013,08,31,16,03,21.40
2013,08,31,16,04,21.40
2013,08,31,16,05,21.30
2013,08,31,16,06,21.30
2013,08,31,16,07,21.30
2013,08,31,16,08,21.30
2013,08,31,16,09,21.30
2013,08,31,16,10,21.30
2013,08,31,16,11,21.40
2013,08,31,16,12,21.40
2013,08,31,16,13,21.40
2013,08,31,16,14,21.40
2013,08,31,16,15,21.50
2013,08,31,16,16,21.50
2013,08,31,16,17,21.60
2013,08,31,16,18,21.60
2013,08,31,16,19,21.60
2013,08,31,16,20,21.60
2013,08,31,16,21,21.60
2013,08,31,16,22,21.60
2013,08,31,16,23,21.60
2013,08,31,16,24,21.60
2013,08,31,16,25,21.60
2013,08,31,16,26,21.60
2013,08,31,16,27,21.60
2013,08,31,16,28,21.60
2013,08,31,16,29,21.70
2013,08,31,16,30,21.70
2013,08,31,16,31,21.80
2013,08,31,16,32,21.80
2013,08,31,16,33,21.90
2013,08,31,16,34,21.90
2013,08,31,16,35,21.90
2013,08,31,16,36,21.90
2013,08,31,16,37,21.80
2013,08,31,16,38,21.80
2013,08,31,16,39,21.80
2013,08,31,16,40,21.90
2013,08,31,16,41,21.90
2013,08,31,16,42,21.90
2013,08,31,16,43,21.80
2013,08,31,16,44,21.80
2013,08,31,16,45,21.80
2013,08,31,16,46,21.80
2013,08,31,16,47,21.80
2013,08,31,16,48,21.80
2013,08,31,16,49,21.80
2013,08,31,16,50,21.80
2013,08,31,16,51,21.80
2013,08,31,16,52,21.80
2013,08,31,16,53,21.80
2013,08,31,16,54,21.80
2013,08,31,16,55,21.80
2013,08,31,16,56,21.80
2013,08,31,16,57,21.80
2013,08,31,16,58,21.80
2013,08,31,16,59,21.80
2013,08,31,17,00,21.80
2013,08,31,17,01,21.80
2013,08,31,17,02,21.80
2013,08,31,17,03,21.80
2013,08,31,17,04,21.80
2013,08,31,17,05,21.80
2013,08,31,17,06,21.80
2013,08,31,17,07,21.90
2013,08,31,17,08,21.90
2013,08,31,17,09,21.90
2013,08,31,17,10,21.90
2013,08,31,17,11,21.90
2013,08,31,17,12,22.00
2013,08,31,17,13,21.90
2013,08,31,17,14,21.90
2013,08,31,17,15,21.90
2013,08,31,17,16,21.80
2013,08,31,17,17,21.80
2013,08,31,17,18,21.90
2013,08,31,17,19,21.90